Regional Weather Roundup
Issued by NWS

Home | Current Version | Previous Version | Graphics & Text | Print | Product List | Glossary On
Versions: 1 2 3 4 5 6 7 8 9 10 11 12 13 14 15 16 17 18 19 20 21 22 23 24 25 26 27
000
ASUS45 KTFX 220810
RWRMT
MONTANA REGIONAL WEATHER ROUNDUP
NATIONAL WEATHER SERVICE GREAT FALLS MT
200 AM MDT FRI SEP 22 2017

NOTE: "FAIR" INDICATES FEW OR NO CLOUDS BELOW 12000 FEET WITH NO
SIGNIFICANT WEATHER AND/OR OBSTRUCTIONS TO VISIBILITY.

MTZ001>007-043-220900-
WEST OF THE DIVIDE

CITY           SKY/WX    TMP DP  RH WIND       PRES   REMARKS
KALISPELL      CLEAR     43  32  65 NE16      29.98R
MISSOULA       CLOUDY    40  37  89 CALM      29.94R
BUTTE          LGT RAIN  35  34  96 E3        29.91R
MULLAN PASS    MOCLDY    31  29  92 N5        29.92R FOG
ANACONDA         N/A     36  34  93 N12       29.93R WCI  27
DEER LODGE       N/A     39  32  75 N9G17     29.97R
EUREKA           N/A     41  39  93 CALM      30.01R
HAMILTON         N/A     39  34  81 CALM      29.92R
LIBBY            N/A     37  37 100 CALM      30.00R
PLAINS           N/A     37  31  79 CALM      29.97R
$$

MTZ008-052>055-220900-
SOUTHWEST MONTANA

CITY           SKY/WX    TMP DP  RH WIND       PRES   REMARKS
BOZEMAN        LGT RAIN  40  39  97 CALM      29.90R
DILLON         CLOUDY    36  33  89 NE10      29.86R WCI  28
W YELLOWSTONE  LGT SNOW  32  32 100 MISG      29.81F
ENNIS          FLURRIES  34  34 100 N18G28    29.89R WCI  23
THREE FORKS      N/A     41  37  85 N8        29.92R
TWIN BRIDGES     N/A     37  31  79 N21       29.86  WCI  26
$$

MTZ009-010-012-014-046-048-049-054-220900-
EAST SLOPES AND CENTRAL MONTANA

CITY           SKY/WX    TMP DP  RH WIND       PRES   REMARKS
CUT BANK       CLOUDY    35  30  82 N6        30.08R WCI  30
GREAT FALLS    CLOUDY    40  29  64 N16       30.03R
MALMSTROM AFB  CLOUDY    40  31  71 NE16      30.03R
HELENA         CLOUDY    41  34  76 N13G22    29.97R
BOWMANS CRNR   LGT RAIN  35  29  79 N16       30.02R WCI  26
CHOTEAU          N/A     37  30  75 N13       30.05F WCI  29
FAIRFIELD      MOCLDY    38  29  69 N14       30.04R WCI  30
POWER          CLOUDY    37  29  74 N16       30.02R WCI  28
RAYNESFORD     LGT RAIN  39  35  84 W5        30.00R
ULM            MOCLDY    41  31  67 N15       30.02R
$$

MTZ011-013-016-021-045-047-050-051-220900-
NORTH CENTRAL MONTANA

CITY           SKY/WX    TMP DP  RH WIND       PRES   REMARKS
HAVRE          CLOUDY    40  33  76 SW5       30.05R
LEWISTOWN      LGT RAIN  39  36  89 E9        29.98S
N BAR RANCH    LGT SNOW  34  32  93 NE9       30.01R WCI  26
CHINOOK          N/A     39  30  70 CALM      30.05R
DENTON         LGT RAIN  41  36  82 NE9       29.97S
GEYSER         LGT RAIN  38  32  80 N14       30.00R WCI  30
GRASS RANGE    LGT RAIN  40  37  89 E13       29.96S
JUDITH GAP     LGT RAIN  36  34  93 W9        29.96F WCI  29
WINIFRED       LGT RAIN  40  36  84 NE9       29.98F
$$

MTZ017>020-022>027-061-062-220900-
NORTHEAST MONTANA

CITY           SKY/WX    TMP DP  RH WIND       PRES   REMARKS
GLASGOW        CLOUDY    47  33  58 N8        29.99R
JORDAN           N/A     45  40  82 N8        29.97F
SIDNEY         MOCLDY    49  41  74 N13       29.94R
WOLF POINT     LGT RAIN  49  36  61 N18       29.97S
MALTA          CLOUDY    45  32  61 CALM      30.03R
POPLAR           N/A     48  36  61 N10       29.97S
SCOBEY           N/A     43  32  65 CALM      29.98R
$$

MTZ028>42-056>058-220900-
SOUTHCENTRAL AND SOUTHEAST MONTANA

CITY           SKY/WX    TMP DP  RH WIND       PRES   REMARKS
BAKER          CLOUDY    52  34  50 NE9       29.90R
BILLINGS       CLOUDY    40  39  97 NE14      29.94S
LIVINGSTON     LGT SNOW  33  33 100 E17       29.91R VSB 3/4 WCI  22
MILES CITY     CLOUDY    50  36  58 N7        29.90R
BIG TIMBER     FOG       32  32 100 NE6       29.98R VSB 1/2 WCI  26
EKALAKA          N/A     48  32  54 N9        29.86S
HARLOWTON      LGT SNOW  33  32  96 MISG      29.96S
LAUREL           N/A     37  37 100 NW9G17    29.98R FOG     WCI  31
$$

REGIONAL REPORTS...DAKOTAS

CITY           SKY/WX    TMP DP  RH WIND       PRES   REMARKS
WILLISTON      LGT RAIN  48  40  73 N15       29.94R
MINOT          PTCLDY    51  39  63 N16       29.88R
DICKINSON      MOCLDY    50  37  61 N14       29.85R
BEACH          MOCLDY    46  37  71 N12       29.92R
CROSBY         MOCLDY    45  39  81 NW8       30.00R
TIOGA          LGT RAIN  46  41  81 N14       29.91F
WATFORD CITY     N/A     48  41  76 N14       29.89S
BISMARCK       CLEAR     57  48  72 N10       29.79S
GRAND FORKS    CLEAR     59  58  96 NW8       29.72F
FARGO          CLOUDY    71  69  93 SE7       29.71R
BUFFALO SD       N/A     52  35  52 NE20      29.77S
$$

REGIONAL REPORTS...WYOMING/IDAHO/WASHINGTON

CITY           SKY/WX    TMP DP  RH WIND       PRES   REMARKS
GILLETTE       CLOUDY    41  34  76 N9        29.84F
SHERIDAN       CLOUDY    45  40  82 NW6       29.92S
BUFFALO WY     CLOUDY    45  33  63 NW9       29.91S
CODY           LGT RAIN  36  33  89 N12       29.89F WCI  28
IDAHO FALLS    CLOUDY    41  40  96 SW9       29.81F
SALMON         CLOUDY    44  37  76 CALM      29.84R
BOISE          PTCLDY    46  38  73 NW10      29.84R
SPOKANE        PTCLDY    40  40 100 N7        29.95S
$$

REGIONAL REPORTS...ALBERTA

CITY           SKY/WX    TMP DP  RH WIND       PRES   REMARKS
EDMONTON       CLOUDY    37  37 100 N8        30.11R WCI  31
CALGARY        MOCLDY    34  32  93 NW9       30.07S WCI  26
LETHBRIDGE     CLOUDY    37  32  81 NW12      30.07R WCI  30
MEDICINE HAT   CLOUDY    41  36  81 NW6       30.06R
$$

REGIONAL REPORTS...SASKATCHEWAN

CITY           SKY/WX    TMP DP  RH WIND       PRES   REMARKS
SWIFT CURRENT  MOCLDY    34  32  93 W9        29.99S WCI  26
REGINA         CLOUDY    36  32  87 SW5       29.99R
SASKATOON      MOCLDY    32  30  93 W3        29.99R
$$




USA.gov is the U.S. government's official web portal to all federal, state and local government web resources and services.